This is the latest recevied weather packets stored in our database for station/object KF0ZH. If no packets are shown the sender has not sent any weather packets the latest 10 day(s).
| Time | Temp. | Humidity | Pressure | Rain* | Wind** | Luminosity | Snow |
|---|---|---|---|---|---|---|---|
| 1777726621 | 5.56° C | 77% | 1018.5 hPa | 0 mm | 0 m/s | - | - |
| 1777726102 | 5.56° C | 77% | 1018.5 hPa | 0 mm | 1.34 m/s, 209° | - | - |
| 1777726021 | 5.56° C | 77% | 1018.5 hPa | 0 mm | 1.34 m/s, 209° | - | - |
| 1777725723 | 5° C | 78% | 1018.6 hPa | 0 mm | 0 m/s | - | - |
| 1777724821 | 4.44° C | 78% | 1018.5 hPa | 0 mm | 0 m/s | - | - |
| 1777724221 | 4.44° C | 79% | 1018.3 hPa | 0 mm | 0 m/s | - | - |
| 1777723921 | 3.89° C | 80% | 1018.5 hPa | 0 mm | 0 m/s | - | - |
| 1777723623 | 3.89° C | 81% | 1018.5 hPa | 0 mm | 0 m/s | - | - |
| 1777723055 | 3.33° C | 82% | 1018.3 hPa | 0 mm | 0 m/s | - | - |
| 1777723022 | 3.33° C | 82% | 1018.3 hPa | 0 mm | 0 m/s | - | - |
| 1777722425 | 2.78° C | 82% | 1018.1 hPa | 0 mm | 0 m/s | - | - |
| 1777722121 | 2.78° C | 82% | 1018.1 hPa | 0 mm | 0 m/s | - | - |
| 1777721521 | 2.78° C | 82% | 1018.2 hPa | 0 mm | 0 m/s | - | - |
| 1777720621 | 3.33° C | 81% | 1018.1 hPa | 0 mm | 0 m/s | - | - |
| 1777720467 | 3.33° C | 80% | 1018 hPa | 0 mm | 0 m/s | - | - |
| 1777720322 | 3.33° C | 80% | 1018 hPa | 0 mm | 0 m/s | - | - |
| 1777720025 | 3.33° C | 80% | 1018 hPa | 0 mm | 0 m/s | - | - |
| 1777718822 | 3.33° C | 80% | 1018.1 hPa | 0 mm | 0 m/s | - | - |
| 1777718523 | 3.33° C | 80% | 1018 hPa | 0 mm | 0 m/s | - | - |
| 1777717621 | 3.33° C | 78% | 1018 hPa | 0 mm | 0 m/s | - | - |
| 1777717066 | 3.89° C | 78% | 1018 hPa | 0 mm | 0 m/s | - | - |
| 1777717023 | 3.89° C | 78% | 1018 hPa | 0 mm | 0 m/s | - | - |
| 1777716722 | 3.89° C | 77% | 1017.9 hPa | 0 mm | 0 m/s | - | - |
| 1777716425 | 3.89° C | 77% | 1018 hPa | 0 mm | 0 m/s | - | - |
| 1777716186 | 3.89° C | 77% | 1017.9 hPa | 0 mm | 0 m/s | - | - |
* Rain latest hour (hover to see other rain measurements)
** Current wind speed in m/s (hover to see current wind gust speed)